FW0743 Weather Reports


time (UTC)temp
F
wind
direction
speed
knots
gust
knots
rain 1hr
in
rain 24hr
in
rain mn
in
humidity
%
barometer
mb
20260903023030 68 141 5.2 8.7 0.03 0.40 0.40 97 1012.4
20260903021532 68 171 6.1 10.4 0.05 0.40 0.40 97 1013.0
20260903020045 68 161 3.5 7.8 0.06 0.40 0.40 97 1014.0
20260903014517 68 196 1.7 8.7 0.07 0.39 0.39 97 1014.1
20260903013028 69 158 5.2 8.7 0.08 0.37 0.37 97 1014.1
20260903011530 69 186 3.5 7.8 0.08 0.35 0.35 96 1013.9
20260903010032 69 190 4.3 12.2 0.08 0.34 0.34 96 1013.3
20260903004516 69 157 3.5 7.8 0.06 0.32 0.32 95 1013.7
20260903003028 70 201 2.6 7.0 0.03 0.29 0.29 94 1014.5
20260903001533 71 159 1.7 9.6 0.01 0.27 0.27 92 1014.5
20260903000040 71 170 4.3 8.7 0.00 0.26 0.26 90 1013.9
20260902234512 72 171 2.6 7.8 0.00 0.26 0.26 89 1014.1
20260902233020 72 153 1.7 6.1 0.00 0.26 0.26 89 1013.9
20260902231534 72 170 3.5 6.1 0.00 0.26 0.26 88 1013.9
20260902230029 73 139 2.6 8.7 0.00 0.26 0.26 87 1013.7
20260902224531 73 142 4.3 10.4 0.00 0.26 0.26 87 1013.1
20260902223019 74 167 4.3 10.4 0.00 0.26 0.26 85 1013.4
20260902221539 75 179 4.3 8.7 0.00 0.26 0.26 84 1013.4
20260902220027 75 162 6.1 17.4 0.00 0.26 0.26 84 1012.6
20260902214533 76 165 5.2 13.9 0.00 0.26 0.26 83 1013.5
20260902213035 76 173 4.3 9.6 0.00 0.26 0.26 82 1014.2
20260902211523 77 178 0.9 4.3 0.00 0.26 0.26 83 1015.5
20260902210030 77 191 1.7 5.2 0.00 0.26 0.26 80 1015.9
20260902204531 77 173 1.7 7.0 0.00 0.26 0.26 78 1015.7
20260902203030 78 146 1.7 6.1 0.00 0.26 0.26 78 1015.6
20260902201519 78 178 1.7 7.8 0.00 0.26 0.26 77 1015.4
20260902200027 78 163 5.2 9.6 0.00 0.26 0.26 76 1015.2
20260902194505 77 153 3.5 9.6 0.00 0.26 0.26 78 1015.1
20260902193010 77 192 5.2 10.4 0.00 0.26 0.26 78 1015.3
20260902191518 76 162 2.6 10.4 0.00 0.26 0.26 78 1015.6
20260902190021 77 179 4.3 11.3 0.00 0.26 0.26 78 1015.7
20260902184530 76 171 4.3 13.0 0.00 0.26 0.26 80 1015.6
20260902183009 76 132 5.2 12.2 0.00 0.26 0.26 79 1016.0
20260902181514 76 221 4.3 13.0 0.00 0.26 0.26 80 1016.1
20260902180020 76 202 3.5 12.2 0.00 0.26 0.26 81 1015.9
20260902174531 75 185 5.2 11.3 0.00 0.26 0.26 81 1015.8
20260902173006 74 198 5.2 10.4 0.00 0.26 0.26 82 1015.9
20260902171513 73 149 5.2 10.4 0.00 0.26 0.26 84 1016.1
20260902170016 72 159 5.2 11.3 0.00 0.26 0.26 86 1016.1
20260902164522 71 202 4.3 10.4 0.00 0.26 0.26 88 1016.2
20260902163028 70 157 6.1 13.9 0.01 0.26 0.26 93 1015.8
20260902161507 68 161 3.5 10.4 0.05 0.26 0.26 98 1016.3
20260902160012 66 136 5.2 10.4 0.08 0.26 0.26 98 1016.4
20260902154533 66 188 2.6 10.4 0.12 0.26 0.26 98 1016.3
20260902153026 65 209 3.5 12.2 0.15 0.25 0.25 98 1016.2
20260902151535 65 217 6.1 15.6 0.14 0.21 0.21 98 1016.3
20260902150010 65 253 4.3 12.2 0.14 0.18 0.18 98 1016.5
20260902144512 65 247 1.7 10.4 0.10 0.15 0.14 98 1018.1
20260902143025 65 220 1.7 7.8 0.07 0.11 0.10 98 1018.0
20260902141535 64 261 3.5 9.6 0.07 0.08 0.07 98 1017.9
20260902140030 64 171 2.6 5.2 0.04 0.05 0.04 97 1017.8
20260902134512 64 173 3.5 8.7 0.04 0.05 0.04 97 1017.3
20260902133020 65 153 4.3 7.8 0.03 0.04 0.03 97 1017.2
20260902131527 65 182 1.7 6.1 0.00 0.01 0.00 96 1018.0
20260902130033 65 154 3.5 6.1 0.00 0.01 0.00 96 1017.9
20260902124531 65 162 0.9 4.3 0.00 0.01 0.00 97 1017.8
20260902123026 65 111 2.6 7.0 0.00 0.01 0.00 97 1018.0
20260902121523 65 128 2.6 7.8 0.00 0.01 0.00 97 1017.8
20260902120028 65 166 2.6 8.7 0.00 0.01 0.00 97 1017.0
20260902114534 65 138 2.6 10.4 0.00 0.01 0.00 98 1017.1
20260902113030 65 153 4.3 8.7 0.00 0.01 0.00 98 1017.1
20260902111534 65 141 5.2 11.3 0.00 0.01 0.00 98 1016.3
20260902110005 65 165 5.2 8.7 0.00 0.01 0.00 98 1016.4
20260902104537 64 146 4.3 10.4 0.00 0.01 0.00 98 1016.3
20260902103017 65 178 4.3 8.7 0.00 0.01 0.00 98 1016.7
20260902101518 64 165 3.5 8.7 0.00 0.01 0.00 98 1017.1
20260902100003 64 180 2.6 7.8 0.00 0.01 0.00 98 1017.2
20260902094503 64 137 4.3 8.7 0.00 0.01 0.00 98 1017.1
20260902093024 64 148 3.5 7.8 0.00 0.01 0.00 98 1017.3
20260902091513 64 149 3.5 7.8 0.00 0.02 0.00 98 1017.2
20260902090020 64 152 3.5 8.7 0.00 0.03 0.00 98 1017.2
20260902084504 64 107 2.6 7.0 0.00 0.03 0.00 98 1017.4
20260902083005 64 134 3.5 7.8 0.00 0.03 0.00 98 1017.5
20260902081510 64 132 2.6 7.0 0.00 0.03 0.00 97 1017.3
20260902080024 64 139 2.6 7.8 0.00 0.03 0.00 97 1017.4
20260902074524 64 157 2.6 7.8 0.00 0.04 0.00 97 1017.4
20260902073016 64 161 3.5 8.7 0.00 0.04 0.00 97 1017.3
20260902071512 64 149 2.6 7.8 0.00 0.05 0.00 98 1017.1
20260902070027 64 160 4.3 8.7 0.00 0.11 0.00 97 1017.2
20260902064524 63 111 3.5 7.0 0.00 0.13 0.00 98 1017.3
20260902063027 63 178 2.6 7.0 0.00 0.13 0.00 97 1017.3
20260902061506 63 142 2.6 7.0 0.00 0.13 0.00 97 1017.3
20260902060010 63 167 0.9 4.3 0.00 0.13 0.00 97 1017.4
20260902054522 63 177 2.6 5.2 0.00 0.13 0.00 97 1017.3
20260902053025 63 194 1.7 6.1 0.00 0.13 0.00 97 1017.2
20260902051528 63 164 1.7 4.3 0.00 0.13 0.00 97 1017.3
20260902050010 63 171 0.9 3.5 0.00 0.13 0.00 96 1017.4
20260902044516 63 171 0.0 3.5 0.00 0.13 0.00 96 1017.3
20260902043029 64 150 0.9 5.2 0.00 0.13 0.00 96 1017.0
20260902041527 64 155 1.7 6.1 0.00 0.13 0.00 96 1016.9
20260902040034 64 186 1.7 4.3 0.00 0.13 0.00 96 1016.7
20260902034512 64 160 1.7 4.3 0.00 0.13 0.13 96 1016.8
20260902033029 64 167 0.9 3.5 0.00 0.13 0.13 96 1016.9
20260902031535 64 182 0.0 4.3 0.00 0.13 0.13 95 1016.7
20260902030027 65 164 2.6 7.0 0.00 0.13 0.13 95 1016.7
20260902024509 65 160 2.6 6.1 0.00 0.13 0.13 94 1016.8